When you browse on this site, cookies collect data to enhance your experience and personalize the content and advertising you see.
Visit our Privacy Policy to learn more. By continuing to use the site, you agree to this use of cookies and data.
  • In Romania
  • List of Countries
  • For 7 days
  • Water Temperature
  • Satellite Maps
  • Weather Map
  • Weather Widgets
  • user-avatar
    Login

    Hourly Weather Inverclyde

    Today, 20 January, Sunday

    Time Temperature Precipitation Wind Pressure Humidity
    00:00 -1°C° 0 mm 2 mps 757 mmHg 88%
    01:00 -1°C° 0 mm 2 mps 757 mmHg 88%
    02:00 -1°C° 0 mm 2 mps 757 mmHg 88%
    03:00 -1°C° 0 mm 2 mps 757 mmHg 88%
    04:00 -1°C° 0 mm 2 mps 757 mmHg 88%
    05:00 -1°C° 0 mm 2 mps 757 mmHg 88%
    06:00 -1°C° 0 mm 2 mps 757 mmHg 88%
    07:00 0°C° 0.2 mm 3 mps 758 mmHg 88%
    08:00 +1°C° 0.2 mm 3 mps 758 mmHg 88%
    09:00 +2°C° 0.2 mm 3 mps 759 mmHg 87%
    10:00 +3°C° 0.1 mm 3 mps 760 mmHg 84%
    11:00 +3°C° 0.1 mm 4 mps 760 mmHg 81%
    12:00 +4°C° 0.1 mm 4 mps 761 mmHg 78%
    13:00 +3°C° 0 mm 4 mps 761 mmHg 78%
    14:00 +3°C° 0 mm 3 mps 762 mmHg 78%
    15:00 +2°C° 0 mm 3 mps 763 mmHg 78%
    16:00 +2°C° 0 mm 3 mps 763 mmHg 80%
    17:00 +1°C° 0 mm 3 mps 763 mmHg 82%
    18:00 +1°C° 0 mm 2 mps 764 mmHg 84%
    19:00 -1°C° 0 mm 2 mps 764 mmHg 84%
    20:00 -1°C° 0 mm 3 mps 765 mmHg 85%
    21:00 -1°C° 0 mm 3 mps 765 mmHg 85%
    22:00 -1°C° 0 mm 3 mps 765 mmHg 85%
    23:00 -1°C° 0 mm 3 mps 765 mmHg 86%

    Tomorrow, 21 January, Monday

    Time Temperature Precipitation Wind Pressure Humidity
    00:00 -1°C° 0 mm 3 mps 765 mmHg 86%
    01:00 -1°C° 0 mm 3 mps 764 mmHg 87%
    02:00 -1°C° 0 mm 3 mps 764 mmHg 87%
    03:00 -1°C° 0 mm 3 mps 764 mmHg 88%
    04:00 0°C° 0 mm 3 mps 763 mmHg 87%
    05:00 0°C° 0 mm 3 mps 762 mmHg 85%
    06:00 0°C° 0 mm 4 mps 762 mmHg 84%
    07:00 0°C° 0.1 mm 4 mps 761 mmHg 84%
    08:00 0°C° 0.1 mm 4 mps 760 mmHg 83%
    09:00 +1°C° 0.1 mm 5 mps 759 mmHg 82%
    10:00 +1°C° 0 mm 5 mps 758 mmHg 79%
    11:00 +2°C° 0 mm 6 mps 757 mmHg 77%
    12:00 +2°C° 0 mm 7 mps 756 mmHg 74%
    13:00 +2°C° 0 mm 7 mps 754 mmHg 74%
    14:00 +1°C° 0 mm 8 mps 752 mmHg 74%
    15:00 +1°C° 0 mm 8 mps 750 mmHg 73%
    16:00 +1°C° 0.1 mm 8 mps 749 mmHg 75%
    17:00 +2°C° 0.1 mm 7 mps 748 mmHg 76%
    18:00 +2°C° 0.1 mm 7 mps 747 mmHg 78%
    19:00 +1°C° 0.4 mm 6 mps 746 mmHg 82%
    20:00 +1°C° 0.4 mm 4 mps 745 mmHg 86%
    21:00 +1°C° 0.4 mm 3 mps 745 mmHg 90%
    22:00 +1°C° 0 mm 3 mps 744 mmHg 90%
    23:00 +1°C° 0 mm 3 mps 744 mmHg 89%

    Day after tomorrow, 22 January, Tuesday

    Time Temperature Precipitation Wind Pressure Humidity
    00:00 0°C° 0 mm 3 mps 743 mmHg 89%
    01:00 0°C° 0 mm 3 mps 743 mmHg 88%
    02:00 0°C° 0 mm 3 mps 743 mmHg 87%
    03:00 0°C° 0 mm 3 mps 743 mmHg 86%
    04:00 0°C° 0 mm 3 mps 743 mmHg 85%
    05:00 -1°C° 0 mm 4 mps 743 mmHg 84%
    06:00 -1°C° 0 mm 4 mps 742 mmHg 83%
    07:00 -1°C° 0 mm 4 mps 743 mmHg 82%
    08:00 -1°C° 0 mm 4 mps 743 mmHg 81%
    09:00 -1°C° 0 mm 4 mps 743 mmHg 80%
    10:00 -1°C° 0 mm 5 mps 744 mmHg 77%
    11:00 0°C° 0 mm 5 mps 744 mmHg 74%
    12:00 +1°C° 0 mm 5 mps 744 mmHg 72%
    13:00 0°C° 0 mm 5 mps 744 mmHg 72%
    14:00 0°C° 0 mm 5 mps 745 mmHg 73%
    15:00 0°C° 0 mm 5 mps 745 mmHg 73%
    16:00 -1°C° 0 mm 4 mps 745 mmHg 75%
    17:00 -2°C° 0 mm 4 mps 746 mmHg 77%
    18:00 -2°C° 0 mm 4 mps 746 mmHg 79%
    19:00 -2°C° 0 mm 3 mps 746 mmHg 78%
    20:00 -2°C° 0 mm 3 mps 747 mmHg 78%
    21:00 -2°C° 0 mm 3 mps 747 mmHg 78%
    22:00 -2°C° 0 mm 3 mps 747 mmHg 78%
    23:00 -2°C° 0 mm 3 mps 747 mmHg 77%

    23 January, Wednesday

    Time Temperature Precipitation Wind Pressure Humidity
    00:00 -3°C° 0 mm 4 mps 748 mmHg 77%
    01:00 -2°C° 0 mm 4 mps 748 mmHg 77%
    02:00 -2°C° 0 mm 4 mps 748 mmHg 78%
    03:00 -2°C° 0 mm 4 mps 748 mmHg 78%
    04:00 -2°C° 0 mm 4 mps 748 mmHg 79%
    05:00 -2°C° 0 mm 4 mps 749 mmHg 79%
    06:00 -2°C° 0 mm 4 mps 749 mmHg 80%
    07:00 -2°C° 0 mm 4 mps 749 mmHg 80%
    08:00 -1°C° 0 mm 4 mps 750 mmHg 81%
    09:00 -1°C° 0 mm 4 mps 750 mmHg 81%
    10:00 0°C° 0 mm 4 mps 751 mmHg 79%
    11:00 +1°C° 0 mm 4 mps 751 mmHg 77%
    12:00 +3°C° 0 mm 4 mps 751 mmHg 75%
    13:00 +3°C° 0 mm 4 mps 751 mmHg 76%
    14:00 +1°C° 0 mm 4 mps 752 mmHg 78%
    15:00 +1°C° 0 mm 4 mps 752 mmHg 79%
    16:00 0°C° 0 mm 4 mps 752 mmHg 81%
    17:00 +1°C° 0 mm 3 mps 752 mmHg 84%
    18:00 0°C° 0 mm 3 mps 753 mmHg 86%
    19:00 0°C° 0 mm 3 mps 753 mmHg 85%
    20:00 0°C° 0 mm 3 mps 753 mmHg 85%
    21:00 0°C° 0 mm 3 mps 753 mmHg 85%
    22:00 0°C° 0 mm 3 mps 754 mmHg 86%
    23:00 0°C° 0 mm 3 mps 754 mmHg 86%

    24 January, Thursday

    Time Temperature Precipitation Wind Pressure Humidity
    00:00 0°C° 0 mm 3 mps 754 mmHg 86%
    01:00 0°C° 0 mm 3 mps 754 mmHg 87%
    02:00 0°C° 0 mm 3 mps 754 mmHg 88%
    03:00 -1°C° 0 mm 2 mps 754 mmHg 89%
    04:00 -1°C° 0 mm 2 mps 755 mmHg 89%
    05:00 -1°C° 0 mm 2 mps 755 mmHg 89%
    06:00 -1°C° 0 mm 2 mps 755 mmHg 89%
    07:00 -1°C° 0 mm 2 mps 755 mmHg 89%
    08:00 -1°C° 0 mm 2 mps 755 mmHg 88%
    09:00 +1°C° 0 mm 2 mps 756 mmHg 87%
    10:00 +2°C° 0 mm 2 mps 756 mmHg 84%
    11:00 +3°C° 0 mm 2 mps 756 mmHg 80%
    12:00 +4°C° 0 mm 2 mps 756 mmHg 77%
    13:00 +4°C° 0 mm 2 mps 756 mmHg 77%
    14:00 +4°C° 0 mm 2 mps 756 mmHg 78%
    15:00 +5°C° 0 mm 1 mps 756 mmHg 78%
    16:00 +4°C° 0 mm 2 mps 756 mmHg 80%
    17:00 +3°C° 0 mm 2 mps 757 mmHg 81%
    18:00 +3°C° 0 mm 2 mps 757 mmHg 82%
    19:00 +3°C° 0 mm 2 mps 757 mmHg 84%
    20:00 +3°C° 0 mm 3 mps 757 mmHg 86%
    21:00 +3°C° 0 mm 3 mps 757 mmHg 87%
    22:00 +3°C° 0 mm 3 mps 757 mmHg 89%
    23:00 +4°C° 0 mm 3 mps 757 mmHg 92%

    25 January, Friday

    Time Temperature Precipitation Wind Pressure Humidity
    00:00 +4°C° 0 mm 4 mps 757 mmHg 94%
    01:00 +5°C° 0 mm 4 mps 757 mmHg 94%
    02:00 +5°C° 0 mm 4 mps 757 mmHg 94%
    03:00 +6°C° 0 mm 4 mps 757 mmHg 95%
    04:00 +6°C° 0 mm 4 mps 756 mmHg 94%
    05:00 +6°C° 0 mm 4 mps 756 mmHg 94%
    06:00 +6°C° 0 mm 4 mps 756 mmHg 94%
    07:00 +6°C° 0 mm 4 mps 756 mmHg 93%
    08:00 +6°C° 0 mm 4 mps 756 mmHg 93%
    09:00 +6°C° 0 mm 5 mps 756 mmHg 93%
    10:00 +6°C° 0.1 mm 5 mps 755 mmHg 92%
    11:00 +7°C° 0.1 mm 5 mps 755 mmHg 90%
    12:00 +7°C° 0.1 mm 6 mps 755 mmHg 88%
    13:00 +7°C° 0.2 mm 6 mps 754 mmHg 89%
    14:00 +7°C° 0.2 mm 5 mps 754 mmHg 89%
    15:00 +7°C° 0.2 mm 5 mps 753 mmHg 89%
    16:00 +7°C° 0.3 mm 5 mps 753 mmHg 90%
    17:00 +6°C° 0.3 mm 5 mps 753 mmHg 91%
    18:00 +6°C° 0.3 mm 5 mps 753 mmHg 92%
    19:00 +5°C° 0 mm 5 mps 753 mmHg 90%
    20:00 +3°C° 0 mm 5 mps 754 mmHg 88%
    21:00 +2°C° 0 mm 5 mps 754 mmHg 86%
    22:00 +2°C° 0 mm 5 mps 754 mmHg 85%
    23:00 +2°C° 0 mm 5 mps 754 mmHg 85%
    Show more